SCP
0 0 0 0 0 0 0 0 0 0 0 0 0 0 0 0 0 0 0 0 0 0 0 0 0 0 0 0 0 0 0 0
0 0 0 0 0 0 0 0 0 0 0 0 0 0 0 0 0 0 0 0 0 0 0 0 0 0 0 0 0 0 0 0
0 0 0 0 0 0 0 0 0 0 0 0 0 0 0 0 0 0 0 0 0 0 0 0 0 0 0 0 0 0 0 0
0 0 0 0 0 0 0 0 0 0 0 0 0 0 0 0 0 0 0 0 0 0 0 0 0 0 0 0 0 0 0 0
0 0 0 0 0 0 0 0 0 0 0 0 0 0 0 0 0 0 0 0 0 0 0 0 0 0 0 0 0 0 0 0
0 0 0 0 0 0 0 0 0 0 0 0 0 0 0 0 0 0 0 0 0 0 0 0 0 0 0 0 0 0 0 0
0 0 0 0 0 0 0 0 0 0 0 0 0 0 0 0 0 0 0 0 0 0 0 0 0 0 0 0 0 0 0 0
0 0 0 0 0 0 0 0 0 0 0 0 0 0 0 0 0 0 0 0 0 0 0 0 0 0 0 0 0 0 0 0
0 0 0 0 0 0 0 0 0 0 0 0 0 0 0 0 0 0 0 0 0 0 0 0 0 0 0 0 0 0 0 0
0 0 0 0 0 0 0 0 0 0 0 0 0 0 0 0 0 0 0 0 0 0 0 0 0 0 0 0 0 0 0 0
0 0 0 0 0 0 0 0 0 0 0 0 0 0 0 0 0 0 0 0 0 0 0 0 0 0 0 0 0 0 0 0
0 0 0 0 0 0 0 0 0 0 0 0 0 0 0 0 0 0 0 0 0 0 0 0 0 0 0 0 0 0 0 0
0 0 0 0 0 0 0 0 0 0 0 0 0 0 0 0 0 0 0 0 0 0 0 0 0 0 0 0 0 0 0 0
0 0 0 0 0 0 0 0 0 0 0 0 0 0 0 0 0 0 0 0 0 0 0 0 0 0 0 0 0 0 0 0
0 0 0 0 0 0 0 0 0 0 0 0 0 0 0 0 0 0 0 -0 -0 0 0 0 0 0 0 0 0 0 0 0
0 0 0 0 0 0 0 0 0 0 0 0 0 0 0 0 0 0 -0 -0 0 -0 -0 -0 -0 0 0 0 0 0 0 0
0 0 0 0 0 0 0 0 0 0 0 0 0 0 0 0 0 0 0 0 0 0 0 -0 0 0 0 0 0 0 0 0
0 0 0 0 0 0 0 0 0 0 0 0 0 0 0 0 0 0 0 0 0 0 0 0 0 0 0 0 0 0 0 0
0 0 0 0 0 0 0 0 0 0 0 0 0 0 0 0 0 0 0 0 0 0 0 0 0 0 0 0 0 0 0 0
0 0 0 0 0 0 0 0 0 0 0 0 0 0 0 0 0 0 0 0 0 0 0 0 0 0 0 0 0 0 0 0
Wind_Speed_500mb
26 24 23 20 17 16 16 18 21 25 29 37 35 31 36 41 42 39 38 38 39 40 40 40 42 44 47 49 46 51 47 48
31 27 22 20 19 19 19 19 19 20 22 23 24 24 26 28 31 34 35 35 36 35 37 39 39 41 46 45 43 45 46 46
33 28 26 24 23 24 24 21 19 19 22 24 23 23 22 24 24 25 25 27 27 30 31 31 29 29 31 32 35 38 40 43
32 30 29 28 28 26 24 23 23 24 23 22 22 22 21 20 20 19 18 17 15 15 16 17 20 24 26 28 28 31 34 37
37 39 38 35 31 28 29 28 28 28 26 25 25 24 22 19 17 15 12 10 9 7 5 8 13 19 23 27 30 33 37 40
49 47 42 41 40 39 36 35 33 32 30 29 28 25 22 19 15 11 7 3 2 5 10 14 21 27 33 37 40 44 47 48
53 53 51 49 46 43 40 35 33 34 31 29 26 24 20 15 10 5 1 5 9 12 14 18 23 30 36 43 46 48 52 56
65 61 57 56 51 46 44 40 40 34 31 28 23 18 14 10 6 2 3 7 12 16 20 23 30 38 45 51 54 57 60 64
72 70 65 60 57 52 47 45 39 35 31 27 22 17 12 7 3 5 9 15 20 24 29 33 39 46 52 57 62 65 66 68
78 76 70 67 56 51 50 46 40 34 29 24 19 13 8 3 5 12 18 23 28 34 37 40 42 47 52 58 63 66 68 68
74 75 71 63 58 57 52 44 37 31 26 20 13 6 5 11 19 27 32 34 34 36 40 44 46 48 51 56 62 66 68 71
72 72 66 62 61 56 48 41 35 28 19 11 8 11 15 19 22 25 29 33 36 38 40 45 49 52 56 58 61 64 69 73
72 67 65 62 58 54 47 38 29 19 13 9 9 15 20 21 21 26 31 36 38 41 43 47 50 54 58 60 61 65 72 77
62 65 62 58 50 48 40 32 23 13 7 5 7 13 13 16 20 25 32 37 42 47 51 54 55 57 58 61 64 66 70 73
57 61 62 56 47 39 31 23 15 8 3 13 12 9 12 18 23 29 34 39 45 50 55 58 58 58 60 64 67 69 71 74
56 59 57 48 35 30 25 18 13 21 15 9 9 10 15 21 26 30 34 38 43 47 51 56 59 58 61 63 66 67 68 69
57 50 39 38 37 29 24 28 20 17 17 10 8 14 19 22 23 26 29 33 39 43 47 50 51 55 59 60 59 61 58 56
49 41 39 30 24 29 28 28 28 20 14 12 14 17 20 22 26 27 25 29 32 38 43 47 50 52 52 55 57 52 51 47
54 48 38 38 43 41 34 29 24 19 17 16 18 20 23 26 29 33 35 36 34 35 41 45 45 47 52 56 56 54 48 47
56 50 48 44 40 34 30 26 23 19 20 20 21 22 23 27 31 35 37 36 35 35 35 42 41 42 43 46 49 52 50 49
Wind_Direction_500mb
218 220 222 224 227 231 225 218 213 216 220 215 214 222 229 233 235 239 247 253 256 255 256 257 261 263 267 266 273 278 278 284
221 222 223 222 222 223 223 220 211 201 197 202 208 212 216 220 231 236 243 248 254 256 258 257 260 260 267 272 276 277 280 283
221 219 213 212 211 211 210 205 201 191 180 173 179 188 198 206 214 222 228 238 243 248 255 259 261 266 270 272 276 282 286 289
214 210 207 205 205 202 193 189 182 179 179 176 179 186 190 195 203 210 216 221 230 245 257 269 278 282 284 289 293 296 300 303
209 205 203 200 197 191 185 182 178 174 171 168 166 166 167 166 169 171 176 186 196 212 249 287 298 300 299 298 299 300 301 302
211 208 201 197 192 188 186 184 181 177 169 165 162 161 159 156 151 147 147 156 272 305 314 315 313 309 305 304 304 303 303 304
212 211 205 200 197 192 191 186 181 177 169 164 162 160 159 154 148 139 349 330 322 323 327 325 318 313 311 310 311 311 310 310
216 213 207 202 201 195 192 188 183 174 169 166 163 161 156 150 144 120 355 340 329 333 331 328 321 317 315 313 315 315 314 312
223 215 210 206 202 196 189 182 181 175 172 169 167 164 155 142 104 10 343 333 333 334 328 331 323 317 317 314 311 309 307 305
224 217 207 206 200 192 186 184 180 177 173 169 164 158 146 114 359 341 337 333 333 333 322 320 320 317 316 314 312 310 308 307
221 215 207 199 195 190 186 182 178 172 167 158 146 120 32 358 347 339 332 326 321 327 327 325 324 324 323 321 319 317 316 315
210 207 198 192 188 184 182 177 169 160 148 123 65 13 352 343 326 315 319 327 328 329 330 330 331 332 330 329 327 324 321 320
204 197 188 185 183 179 174 164 153 141 119 82 17 341 314 300 315 323 328 328 328 331 334 335 336 334 332 329 326 323 320 320
197 184 178 175 173 171 163 148 136 124 117 42 309 274 297 317 325 329 330 330 331 333 334 333 332 331 328 325 324 322 320 319
186 177 171 167 159 155 152 152 155 129 134 231 241 285 315 323 327 328 327 329 332 332 330 327 328 328 326 326 325 325 322 321
180 172 163 161 167 172 173 164 158 199 199 235 260 303 319 319 321 328 330 328 330 330 331 330 331 333 333 330 330 328 326 322
172 168 172 177 182 170 159 187 186 217 215 224 268 291 303 314 322 322 325 333 336 335 333 332 332 331 330 328 325 328 327 328
178 185 184 168 160 179 187 206 209 205 213 238 267 291 302 310 319 324 332 337 337 335 334 331 333 332 330 326 327 332 331 329
196 197 188 180 192 201 200 199 206 216 234 255 276 293 307 315 321 324 328 336 342 337 334 330 333 333 330 329 329 326 333 338
203 197 192 194 198 200 203 209 220 237 254 270 287 296 307 319 326 328 329 336 339 335 333 329 336 337 337 332 329 330 332 334
Wind_Speed_850mb
26 24 23 20 17 16 16 18 21 25 29 37 35 31 36 41 42 39 38 38 39 40 40 40 42 44 47 49 46 51 47 48
31 27 22 20 19 19 19 19 19 20 22 23 24 24 26 28 31 34 35 35 36 35 37 39 39 41 46 45 43 45 46 46
33 28 26 24 23 24 24 21 19 19 22 24 23 23 22 24 24 25 25 27 27 30 31 31 29 29 31 32 35 38 40 43
32 30 29 28 28 26 24 23 23 24 23 22 22 22 21 20 20 19 18 17 15 15 16 17 20 24 26 28 28 31 34 37
37 39 38 35 31 28 29 28 28 28 26 25 25 24 22 19 17 15 12 10 9 7 5 8 13 19 23 27 30 33 37 40
49 47 42 41 40 39 36 35 33 32 30 29 28 25 22 19 15 11 7 3 2 5 10 14 21 27 33 37 40 44 47 48
53 53 51 49 46 43 40 35 33 34 31 29 26 24 20 15 10 5 1 5 9 12 14 18 23 30 36 43 46 48 52 56
65 61 57 56 51 46 44 40 40 34 31 28 23 18 14 10 6 2 3 7 12 16 20 23 30 38 45 51 54 57 60 64
72 70 65 60 57 52 47 45 39 35 31 27 22 17 12 7 3 5 9 15 20 24 29 33 39 46 52 57 62 65 66 68
78 76 70 67 56 51 50 46 40 34 29 24 19 13 8 3 5 12 18 23 28 34 37 40 42 47 52 58 63 66 68 68
74 75 71 63 58 57 52 44 37 31 26 20 13 6 5 11 19 27 32 34 34 36 40 44 46 48 51 56 62 66 68 71
72 72 66 62 61 56 48 41 35 28 19 11 8 11 15 19 22 25 29 33 36 38 40 45 49 52 56 58 61 64 69 73
72 67 65 62 58 54 47 38 29 19 13 9 9 15 20 21 21 26 31 36 38 41 43 47 50 54 58 60 61 65 72 77
62 65 62 58 50 48 40 32 23 13 7 5 7 13 13 16 20 25 32 37 42 47 51 54 55 57 58 61 64 66 70 73
57 61 62 56 47 39 31 23 15 8 3 13 12 9 12 18 23 29 34 39 45 50 55 58 58 58 60 64 67 69 71 74
56 59 57 48 35 30 25 18 13 21 15 9 9 10 15 21 26 30 34 38 43 47 51 56 59 58 61 63 66 67 68 69
57 50 39 38 37 29 24 28 20 17 17 10 8 14 19 22 23 26 29 33 39 43 47 50 51 55 59 60 59 61 58 56
49 41 39 30 24 29 28 28 28 20 14 12 14 17 20 22 26 27 25 29 32 38 43 47 50 52 52 55 57 52 51 47
54 48 38 38 43 41 34 29 24 19 17 16 18 20 23 26 29 33 35 36 34 35 41 45 45 47 52 56 56 54 48 47
56 50 48 44 40 34 30 26 23 19 20 20 21 22 23 27 31 35 37 36 35 35 35 42 41 42 43 46 49 52 50 49
Wind_Direction_850mb
218 220 222 224 227 231 225 218 213 216 220 215 214 222 229 233 235 239 247 253 256 255 256 257 261 263 267 266 273 278 278 284
221 222 223 222 222 223 223 220 211 201 197 202 208 212 216 220 231 236 243 248 254 256 258 257 260 260 267 272 276 277 280 283
221 219 213 212 211 211 210 205 201 191 180 173 179 188 198 206 214 222 228 238 243 248 255 259 261 266 270 272 276 282 286 289
214 210 207 205 205 202 193 189 182 179 179 176 179 186 190 195 203 210 216 221 230 245 257 269 278 282 284 289 293 296 300 303
209 205 203 200 197 191 185 182 178 174 171 168 166 166 167 166 169 171 176 186 196 212 249 287 298 300 299 298 299 300 301 302
211 208 201 197 192 188 186 184 181 177 169 165 162 161 159 156 151 147 147 156 272 305 314 315 313 309 305 304 304 303 303 304
212 211 205 200 197 192 191 186 181 177 169 164 162 160 159 154 148 139 349 330 322 323 327 325 318 313 311 310 311 311 310 310
216 213 207 202 201 195 192 188 183 174 169 166 163 161 156 150 144 120 355 340 329 333 331 328 321 317 315 313 315 315 314 312
223 215 210 206 202 196 189 182 181 175 172 169 167 164 155 142 104 10 343 333 333 334 328 331 323 317 317 314 311 309 307 305
224 217 207 206 200 192 186 184 180 177 173 169 164 158 146 114 359 341 337 333 333 333 322 320 320 317 316 314 312 310 308 307
221 215 207 199 195 190 186 182 178 172 167 158 146 120 32 358 347 339 332 326 321 327 327 325 324 324 323 321 319 317 316 315
210 207 198 192 188 184 182 177 169 160 148 123 65 13 352 343 326 315 319 327 328 329 330 330 331 332 330 329 327 324 321 320
204 197 188 185 183 179 174 164 153 141 119 82 17 341 314 300 315 323 328 328 328 331 334 335 336 334 332 329 326 323 320 320
197 184 178 175 173 171 163 148 136 124 117 42 309 274 297 317 325 329 330 330 331 333 334 333 332 331 328 325 324 322 320 319
186 177 171 167 159 155 152 152 155 129 134 231 241 285 315 323 327 328 327 329 332 332 330 327 328 328 326 326 325 325 322 321
180 172 163 161 167 172 173 164 158 199 199 235 260 303 319 319 321 328 330 328 330 330 331 330 331 333 333 330 330 328 326 322
172 168 172 177 182 170 159 187 186 217 215 224 268 291 303 314 322 322 325 333 336 335 333 332 332 331 330 328 325 328 327 328
178 185 184 168 160 179 187 206 209 205 213 238 267 291 302 310 319 324 332 337 337 335 334 331 333 332 330 326 327 332 331 329
196 197 188 180 192 201 200 199 206 216 234 255 276 293 307 315 321 324 328 336 342 337 334 330 333 333 330 329 329 326 333 338
203 197 192 194 198 200 203 209 220 237 254 270 287 296 307 319 326 328 329 336 339 335 333 329 336 337 337 332 329 330 332 334